Weather History for CYKA - November, 2012

Change the Weather History Date:

Monday, November 19, 2012

  Actual Average Record
Temperature  
Mean Temperature 46 °F -  
Max Temperature 51 °F 38 °F 53 °F (2006)
Min Temperature 40 °F 28 °F 10 °F (1996)
Degree Days  
Heating Degree Days 20    
Moisture  
Dew Point 37 °F    
Average Humidity 67    
Maximum Humidity 87    
Minimum Humidity 40    
Precipitation  
Precipitation 0.08 in - - ()
Sea Level Pressure  
Sea Level Pressure 29.49 in    
Wind  
Wind Speed 13 mph ()    
Max Wind Speed 20 mph    
Max Gust Speed 30 mph    
Averages and records for this station are not official NWS values.
T = Trace of Precipitation, MM = Missing Value Source: Averaged Metar Reports

Daily Weather History Graph

Daily Weather History Graph

Search for Another Location

Airport or City:

Trip Planner

Search our weather history database for the weather conditions in past years. The results will help you decide how hot, cold, wet, or windy it might be!

Date:

Astronomy

Nov. 19, 2012 Rise Set
Actual Time 7:24 AM PST 4:09 PM PST
Civil Twilight 6:47 AM PST 4:46 PM PST
Nautical Twilight 6:07 AM PST 5:26 PM PST
Astronomical Twilight 5:28 AM PST 6:05 PM PST
Moon 12:14 PM PST (11/19) 11:00 PM PST (11/19)
Length of Visible Light 9h 58m
Length of Day
8h 45m
Waxing Crescent, 42% of the Moon is Illuminated
Nov 19
Waxing Crescent
Nov 20
First Quarter
Nov 28
Full
Dec 6
Last Quarter
Dec 13
New

Hourly Weather History & Observations

Time (PST) Temp. Windchill Dew Point Humidity Pressure Visibility Wind Dir Wind Speed Gust Speed Precip Events Conditions
12:00 AM 46.4 °F 39.0 °F 33.8 °F 62% 29.57 in 40.0 mi East 19.6 mph 29.9 mph N/A   Mostly Cloudy
1:00 AM 48.2 °F - 32.0 °F 54% 29.57 in 40.0 mi ESE 17.3 mph 25.3 mph N/A   Mostly Cloudy
2:00 AM 46.4 °F 40.1 °F 32.0 °F 57% 29.56 in 40.0 mi ESE 15.0 mph 27.6 mph N/A   Mostly Cloudy
3:00 AM 48.2 °F - 32.0 °F 54% 29.56 in 40.0 mi ESE 17.3 mph 28.8 mph N/A   Scattered Clouds
4:00 AM 48 °F - 31 °F 40% 29.56 in 37 mi East 18.4 mph - -   Partly Cloudy
4:00 AM 48.2 °F - 32.0 °F 54% 29.56 in 40.0 mi East 18.4 mph 27.6 mph N/A   Mostly Cloudy
5:00 AM 46.4 °F 40.1 °F 32.0 °F 57% 29.55 in 40.0 mi ENE 15.0 mph - N/A   Mostly Cloudy
6:00 AM 48.2 °F - 33.8 °F 58% 29.56 in 40.0 mi ESE 12.7 mph - N/A   Mostly Cloudy
7:00 AM 48.2 °F - 33.8 °F 58% 29.57 in 40.0 mi ENE 12.7 mph 19.6 mph N/A   Overcast
8:00 AM 46.4 °F 41.5 °F 33.8 °F 62% 29.55 in 40.0 mi East 10.4 mph - N/A   Overcast
9:00 AM 46.4 °F 42.4 °F 35.6 °F 66% 29.55 in 40.0 mi ENE 8.1 mph - N/A   Overcast
10:00 AM 48 °F - 35 °F 50% 29.53 in 37 mi East 13.8 mph - -   Overcast
10:00 AM 48.2 °F - 35.6 °F 62% 29.53 in 40.0 mi East 13.8 mph - N/A   Overcast
11:00 AM 48.2 °F - 37.4 °F 66% 29.51 in 40.0 mi East 15.0 mph - N/A   Overcast
11:02 AM - - - N/A% - 30.0 mi East 16.1 mph - N/A Rain Light Rain Showers
12:00 PM 46.4 °F 40.7 °F 39.2 °F 76% 29.48 in 25.0 mi East 12.7 mph 19.6 mph N/A Rain Light Rain Showers
1:00 PM 44.6 °F 39.2 °F 39.2 °F 81% 29.46 in 25.0 mi East 10.4 mph - N/A Rain Light Rain Showers
2:00 PM 44.6 °F 38.8 °F 39.2 °F 81% 29.42 in 25.0 mi East 11.5 mph 19.6 mph N/A Rain Light Rain Showers
3:00 PM 44.6 °F 38.8 °F 41.0 °F 87% 29.41 in 25.0 mi ESE 11.5 mph - N/A Rain Light Rain Showers
3:53 PM - - - N/A% - 30.0 mi ESE 13.8 mph - N/A   Mostly Cloudy
4:00 PM 44 °F - 41 °F 84% 29.39 in 28 mi ESE 15.0 mph - - Rain Light Rain Showers
4:00 PM 44.6 °F 37.2 °F 41.0 °F 87% 29.39 in 30.0 mi East 17.3 mph - N/A   Mostly Cloudy
5:00 PM 44.6 °F 38.4 °F 39.2 °F 81% 29.37 in 30.0 mi NNE 12.7 mph 20.7 mph N/A   Mostly Cloudy
5:48 PM - - - N/A% - 25.0 mi East 8.1 mph - N/A Rain Light Rain Showers
6:00 PM 46.4 °F 42.9 °F 41.0 °F 81% 29.41 in 25.0 mi East 6.9 mph - N/A Rain Light Rain Showers
6:39 PM - - - N/A% - 30.0 mi NNE 17.3 mph - N/A   Mostly Cloudy
7:00 PM 46.4 °F 41.1 °F 41.0 °F 81% 29.40 in 30.0 mi East 11.5 mph 18.4 mph N/A   Mostly Cloudy
8:00 PM 46.4 °F 39.5 °F 39.2 °F 76% 29.42 in 30.0 mi East 17.3 mph - N/A   Overcast
9:00 PM 50.0 °F - 37.4 °F 62% 29.43 in 30.0 mi SE 11.5 mph 17.3 mph N/A   Overcast
10:00 PM 48 °F - 38 °F 58% 29.46 in 28 mi WSW 4.6 mph - -   Partly Cloudy
10:00 PM 48.2 °F - 37.4 °F 66% 29.46 in 30.0 mi SW 5.8 mph - N/A   Mostly Cloudy
11:00 PM 46.4 °F - 39.2 °F 76% 29.52 in 40.0 mi WNW 2.3 mph - N/A   Mostly Cloudy